Wind_Speed
12 12 12 12 12 12 12 13 12 12 12 13 13 13 12 12 12 12 11 12 12 12 12 13 13 14 14 14 15 15 15 16 16 16 16 17 17 17
13 13 13 13 13 13 13 14 14 13 14 13 14 14 14 14 13 13 13 13 13 14 14 15 15 15 15 15 16 16 17 17 17 18 18 18 18 18
13 14 15 15 15 15 15 15 15 15 15 15 15 15 15 15 14 14 14 15 16 16 16 16 16 17 17 17 18 18 18 18 18 19 19 19 19 19
15 15 15 16 17 17 17 16 16 16 16 16 16 16 17 17 17 17 17 18 18 18 17 18 18 19 19 19 19 19 20 20 20 20 20 20 20 20
16 16 17 17 18 18 18 17 17 17 17 17 18 18 19 19 19 20 20 20 20 20 20 20 21 21 21 21 21 21 21 21 22 22 22 21 21 21
17 18 18 18 19 19 19 19 18 19 19 19 19 20 21 21 21 21 22 22 22 21 22 22 22 23 23 22 22 22 22 22 22 22 22 22 23 23
18 19 19 20 20 21 20 20 20 21 21 21 21 22 22 22 23 23 23 23 23 23 23 23 23 23 23 23 22 22 23 23 23 23 23 23 24 24
20 20 20 21 21 22 22 22 22 22 23 23 23 23 24 24 24 24 24 24 24 24 24 23 23 23 23 23 23 22 23 23 24 24 25 25 25 26
21 21 21 22 23 22 23 23 23 24 24 24 24 25 25 26 26 26 26 25 25 24 24 23 23 23 24 23 23 23 24 23 23 24 25 26 26 26
22 22 23 23 23 23 23 24 24 25 25 26 26 26 27 27 27 27 27 26 25 25 25 25 25 24 24 24 24 25 25 25 25 25 25 25 27 27
23 23 23 23 23 24 24 25 25 25 26 26 27 27 27 27 27 27 27 26 26 26 26 26 26 25 25 25 25 25 25 26 26 26 27 27 27 27
23 24 24 24 24 24 25 26 26 26 26 27 27 26 26 26 26 26 27 26 26 27 27 27 27 26 25 25 26 26 27 27 27 27 27 28 28 28
23 24 24 25 25 25 26 26 26 26 27 27 27 27 27 26 26 26 27 27 27 27 27 28 28 27 26 26 26 27 27 28 29 29 29 29 29 29
24 24 25 26 27 26 27 27 27 27 28 28 28 27 27 27 27 27 28 28 28 28 29 28 28 28 28 28 28 28 29 30 30 31 31 31 31 30
25 26 26 27 27 28 28 28 28 29 29 29 28 28 28 28 28 29 29 29 29 30 30 30 29 29 30 30 30 31 31 32 32 33 33 32 32 32
27 28 28 27 28 28 28 28 28 29 29 29 29 29 29 29 30 30 30 30 30 30 30 30 30 30 31 32 32 32 33 33 34 34 34 34 34 34
30 29 28 28 28 28 28 28 29 30 30 30 30 30 30 30 31 32 31 31 31 31 32 32 32 32 32 32 33 33 33 33 33 34 35 35 35 35
31 31 30 30 29 29 29 29 30 30 30 31 31 31 32 32 32 32 33 32 32 32 32 32 33 33 33 33 34 34 34 34 34 34 35 35 35 36
32 31 31 30 30 30 31 31 31 30 31 31 31 31 32 32 33 33 33 34 34 34 34 34 34 35 35 34 34 36 37 37 37 36 36 36 36 36
33 32 32 31 32 32 33 33 32 32 32 32 32 32 33 34 34 34 34 34 34 35 35 35 35 36 36 37 36 36 38 39 38 37 37 37 36 36
34 33 33 33 33 34 33 33 33 33 34 34 34 33 34 35 35 35 35 35 35 36 35 35 36 37 37 37 37 36 37 39 39 38 38 38 37 37
35 35 34 35 35 35 34 34 34 35 35 35 35 35 35 35 35 36 36 36 36 37 37 37 38 38 38 38 38 37 38 39 39 39 39 39 38 38
37 37 37 37 37 37 36 36 36 36 36 37 37 37 37 37 37 38 38 38 38 38 38 39 39 40 40 40 39 39 40 39 39 39 39 39 39 38
Wind_Direction
277 276 276 278 279 280 280 281 280 278 277 279 281 284 286 285 284 284 286 286 286 289 288 287 287 288 288 288 288 289 290 291 290 286 286 287 288 288
279 274 273 277 279 280 281 282 281 280 280 280 281 282 284 283 282 284 286 286 287 288 288 287 286 286 287 288 288 286 286 289 290 287 287 289 289 290
280 275 275 277 278 278 279 280 281 281 281 282 281 280 280 282 283 286 286 288 287 288 290 288 286 285 286 287 287 285 285 285 287 287 288 288 288 289
281 278 277 276 277 276 276 276 278 280 283 282 282 281 280 278 279 282 284 286 287 287 287 286 286 285 286 286 286 285 284 283 284 285 288 288 287 287
281 279 279 277 276 275 275 275 275 277 280 280 281 281 281 279 278 280 281 284 285 284 284 284 285 286 287 286 285 284 283 282 283 283 284 286 286 287
281 281 280 281 277 275 274 274 275 276 278 279 280 281 282 280 280 281 282 283 285 284 283 283 284 285 285 284 284 282 282 282 282 282 283 284 285 286
281 281 280 280 280 277 275 274 276 277 278 280 281 280 280 279 280 281 282 282 284 283 283 283 282 283 284 284 284 283 282 282 282 283 283 284 285 286
281 280 280 279 280 278 276 275 275 277 278 279 280 281 279 279 280 281 281 282 282 281 282 282 281 281 283 284 283 283 284 284 283 284 284 284 285 286
281 280 279 279 278 278 276 276 276 276 278 278 278 280 280 280 279 280 280 280 281 280 280 280 279 280 280 281 281 281 282 284 285 285 285 286 287 287
281 281 281 280 279 278 278 277 279 278 278 278 279 281 281 281 281 281 281 281 280 280 279 280 280 279 279 279 279 279 280 281 283 285 286 287 288 289
281 282 281 281 280 279 278 278 279 280 279 278 279 280 281 281 281 281 281 281 281 281 280 280 279 279 279 278 277 278 278 280 282 284 285 286 288 289
283 283 281 281 281 280 279 278 278 278 280 280 280 281 281 282 281 281 282 281 281 281 281 280 280 279 279 279 278 278 278 280 282 283 285 286 287 288
285 283 282 282 281 280 280 278 278 278 281 281 281 280 280 282 282 280 280 280 281 282 282 282 280 279 278 278 279 279 280 281 282 283 284 286 287 287
286 285 284 283 282 280 279 277 276 278 281 282 281 279 279 280 281 281 280 279 280 282 282 282 282 280 279 278 279 280 281 283 284 283 284 285 286 285
286 285 285 284 282 280 279 278 277 278 280 281 281 280 279 279 279 280 280 280 280 281 281 281 281 281 280 279 280 281 282 283 284 284 284 285 285 284
286 285 284 284 283 282 280 279 278 279 281 280 280 279 279 279 280 281 281 281 281 281 281 281 281 281 282 281 280 281 283 285 285 286 286 285 285 283
286 285 284 284 285 284 280 278 279 280 280 281 281 280 280 280 281 281 280 280 281 282 283 282 282 281 282 283 282 283 283 285 287 287 287 287 286 284
286 285 283 283 284 283 282 281 281 280 280 280 281 281 281 281 280 280 279 280 281 282 283 284 283 282 282 282 283 282 283 284 285 286 286 286 286 284
286 286 284 282 281 280 282 283 282 281 281 282 281 281 282 282 281 282 282 282 282 282 282 283 283 284 283 283 283 282 282 283 284 285 285 285 286 285
285 284 283 281 281 282 282 282 282 281 281 281 281 282 282 283 283 282 282 281 282 282 282 282 283 284 285 285 285 284 283 282 282 283 284 285 284 284
282 282 280 280 282 283 284 283 282 281 281 280 280 281 283 282 282 282 281 282 282 282 282 283 283 284 285 286 285 285 285 284 282 282 283 283 282 282
280 280 280 280 281 282 282 282 282 281 281 281 280 280 282 283 283 282 282 282 282 282 282 283 283 284 285 286 286 285 285 284 284 282 282 282 282 281
279 279 279 279 280 280 280 281 281 280 280 279 280 281 281 282 283 283 282 282 281 282 282 283 283 284 284 285 286 285 285 284 284 283 283 282 281 281
Height
5830 5830 5830 5830 5829 5828 5828 5828 5828 5827 5826 5825 5824 5823 5822 5821 5820 5819 5817 5816 5815 5814 5813 5812 5811 5810 5809 5808 5807 5806 5805 5804 5803 5802 5801 5800 5799 5797
5827 5826 5826 5826 5825 5825 5824 5824 5823 5823 5822 5822 5821 5820 5818 5818 5817 5815 5814 5813 5812 5811 5809 5808 5807 5806 5805 5804 5803 5802 5801 5800 5799 5797 5796 5795 5794 5792
5822 5822 5822 5821 5821 5821 5820 5820 5819 5818 5818 5817 5816 5816 5815 5814 5813 5812 5810 5809 5808 5807 5805 5804 5803 5802 5801 5799 5798 5797 5796 5795 5794 5793 5791 5790 5788 5787
5818 5817 5817 5816 5816 5816 5815 5815 5814 5814 5813 5812 5811 5811 5810 5809 5808 5807 5806 5804 5803 5802 5800 5799 5798 5796 5795 5794 5793 5792 5790 5789 5788 5787 5785 5784 5782 5781
5813 5812 5811 5811 5811 5810 5810 5810 5809 5809 5808 5807 5806 5805 5805 5803 5802 5802 5800 5799 5797 5796 5795 5793 5792 5790 5789 5787 5786 5785 5784 5783 5782 5780 5779 5778 5776 5775
5807 5807 5806 5805 5805 5804 5804 5804 5804 5803 5802 5802 5801 5800 5798 5797 5796 5795 5794 5792 5791 5789 5788 5786 5785 5783 5782 5780 5779 5778 5776 5775 5774 5773 5772 5771 5769 5768
5802 5801 5800 5799 5799 5798 5798 5798 5797 5797 5796 5795 5794 5793 5792 5791 5789 5788 5787 5786 5784 5782 5780 5779 5777 5776 5774 5773 5771 5770 5769 5768 5767 5766 5765 5763 5762 5761
5795 5795 5794 5793 5792 5791 5791 5791 5790 5790 5789 5788 5787 5786 5785 5783 5782 5780 5779 5778 5777 5775 5773 5771 5770 5768 5767 5766 5765 5763 5761 5760 5759 5758 5757 5756 5754 5753
5789 5788 5787 5786 5785 5785 5784 5783 5783 5782 5782 5781 5780 5778 5777 5775 5774 5772 5771 5769 5768 5767 5765 5764 5763 5761 5760 5759 5757 5756 5754 5753 5751 5750 5749 5747 5746 5745
5782 5781 5780 5779 5778 5777 5776 5776 5775 5774 5773 5772 5771 5770 5768 5767 5765 5764 5762 5761 5760 5759 5757 5756 5755 5754 5752 5751 5750 5748 5747 5745 5744 5742 5741 5739 5738 5736
5775 5774 5773 5772 5771 5770 5769 5768 5767 5766 5765 5763 5762 5761 5759 5758 5756 5755 5754 5752 5751 5750 5749 5747 5746 5745 5744 5743 5741 5740 5739 5737 5735 5734 5732 5731 5729 5727
5768 5766 5765 5764 5763 5762 5761 5760 5759 5758 5757 5755 5754 5753 5751 5749 5748 5746 5745 5744 5743 5742 5740 5739 5737 5736 5736 5735 5733 5732 5730 5728 5727 5725 5723 5722 5720 5718
5760 5759 5758 5756 5755 5754 5752 5751 5751 5750 5748 5747 5746 5744 5743 5741 5740 5738 5737 5736 5734 5733 5732 5730 5728 5727 5726 5726 5725 5723 5721 5720 5718 5716 5714 5712 5711 5709
5753 5751 5750 5748 5747 5745 5744 5743 5742 5741 5740 5738 5737 5736 5735 5733 5732 5730 5729 5727 5726 5724 5723 5721 5719 5718 5717 5716 5715 5714 5712 5710 5708 5706 5704 5703 5701 5699
5745 5744 5742 5740 5738 5737 5736 5734 5733 5732 5731 5730 5728 5727 5726 5725 5723 5721 5720 5718 5717 5715 5713 5712 5710 5709 5707 5706 5705 5704 5702 5700 5698 5696 5694 5692 5691 5689
5737 5735 5733 5731 5730 5728 5727 5725 5724 5723 5722 5721 5719 5718 5717 5715 5714 5712 5711 5709 5708 5706 5704 5702 5701 5699 5697 5696 5694 5693 5691 5689 5687 5685 5683 5681 5680 5678
5728 5726 5725 5723 5721 5719 5718 5717 5716 5714 5713 5712 5710 5709 5707 5706 5705 5703 5701 5700 5698 5696 5695 5693 5690 5689 5687 5685 5684 5682 5680 5678 5676 5674 5672 5670 5668 5667
5718 5717 5715 5714 5712 5711 5709 5708 5707 5705 5704 5702 5701 5699 5698 5696 5695 5693 5691 5690 5688 5686 5685 5682 5680 5678 5677 5675 5673 5671 5669 5667 5665 5663 5661 5659 5657 5655
5709 5707 5705 5704 5703 5701 5700 5699 5697 5696 5694 5692 5691 5689 5688 5686 5684 5683 5681 5679 5678 5676 5674 5672 5670 5667 5666 5665 5663 5660 5658 5656 5654 5652 5650 5647 5646 5644
5699 5697 5695 5694 5693 5691 5690 5688 5687 5685 5684 5682 5681 5679 5677 5676 5674 5672 5670 5668 5667 5665 5663 5661 5659 5657 5655 5653 5651 5649 5646 5644 5642 5640 5638 5636 5634 5633
5688 5687 5685 5684 5682 5680 5679 5677 5676 5674 5673 5671 5670 5668 5666 5665 5663 5661 5659 5657 5655 5654 5652 5650 5648 5646 5643 5641 5639 5637 5634 5631 5629 5628 5626 5625 5623 5621
5677 5676 5674 5673 5671 5669 5668 5666 5665 5663 5661 5660 5658 5657 5655 5653 5651 5650 5648 5646 5644 5642 5641 5639 5636 5634 5632 5629 5627 5625 5622 5619 5617 5615 5613 5612 5610 5609
5665 5664 5662 5661 5659 5657 5656 5654 5653 5651 5650 5648 5647 5645 5643 5641 5640 5638 5636 5634 5632 5631 5629 5627 5624 5622 5619 5617 5615 5612 5610 5607 5605 5603 5601 5599 5597 5596